Tracking 30995 objects as of 5-Jul-2025
HD Live streaming from Space Station
objects crossing your sky now

STARLINK-5766

Track STARLINK-5766 now!
10-day predictions
STARLINK-5766 is classified as:


NORAD ID: 56025
Int'l Code: 2023-042AR
Perigee: 565.3 km
Apogee: 567.1 km
Inclination: 43.0 °
Period: 95.8 minutes
Semi major axis: 6937 km
RCS: Unknown
Launch date: March 24, 2022
Source: United States (US)
Launch site: AIR FORCE EASTERN TEST RANGE (AFETR)
Your satellite tracking list
IRIDIUM 106
Track 1 satellite(s)




NASA's NSSDC Master Catalog

Two Line Element Set (TLE):
1 56025U 23042AR  25186.38510807  .00000052  00000-0  18890-4 0  9990
2 56025  43.0046 307.3670 0001268 271.9760  88.0937 15.02537098125858
Source of the keplerian elements: AFSPC